Alva, OK

10:51 PM CDT on August 23, 2016 (GMT -0500)
Alva Regional

Weather History for KAVK - September, 2013

Change the Weather History Date:

Monday, September 2, 2013

  Actual Average Record
Temperature  
Mean Temperature 76 °F -  
Max Temperature 89 °F 91 °F 110 °F (1951)
Min Temperature 62 °F 66 °F 48 °F (1949)
Cooling Degree Days 10    
Growing Degree Days 26 (Base 50)    
Moisture  
Dew Point 57 °F    
Average Humidity 55    
Maximum Humidity 88    
Minimum Humidity 26    
Precipitation  
Precipitation 0.00 in - - ()
Sea Level Pressure  
Sea Level Pressure 30.05 in    
Wind  
Wind Speed 8 mph (NE)    
Max Wind Speed 12 mph    
Max Gust Speed -    
Visibility 10 miles    
Events Rain    
Averages and records for this station are not official NWS values.
T = Trace of Precipitation, MM = Missing Value Source: NWS Daily Summary

Daily Weather History Graph

Daily Weather History Graph

Search for Another Location

Airport or City:

Trip Planner

Search our weather history database for the weather conditions in past years. The results will help you decide how hot, cold, wet, or windy it might be!

Date:

Astronomy

Sep. 02, 2013 Rise Set
Actual Time 7:06 AM CDT 8:01 PM CDT
Civil Twilight 6:40 AM CDT 8:27 PM CDT
Nautical Twilight 6:08 AM CDT 8:58 PM CDT
Astronomical Twilight 5:36 AM CDT 9:30 PM CDT
Moon 4:27 AM CDT (9/2) 6:13 PM CDT (9/2)
Length of Visible Light 13h 47m
Length of Day
12h 54m
Waning Crescent, 8% of the Moon is Illuminated
Sep 2
Waning Crescent
Sep 5
New
Sep 12
First Quarter
Sep 19
Full
Sep 26
Last Quarter

Hourly Weather History & Observations

Time (CDT) Temp. Heat Index Dew Point Humidity Pressure Visibility Wind Dir Wind Speed Gust Speed Precip Events Conditions
12:10 AM 75.2 °F - 62.6 °F 65% 30.02 in 10.0 mi NNE 10.4 mph - N/A   Partly Cloudy
12:30 AM 75.2 °F - 62.6 °F 65% 30.02 in 10.0 mi NE 11.5 mph - N/A   Partly Cloudy
12:50 AM 75.2 °F - 62.6 °F 65% 30.02 in 10.0 mi NE 9.2 mph - N/A   Partly Cloudy
1:10 AM 73.4 °F - 62.6 °F 69% 30.03 in 10.0 mi NE 9.2 mph - N/A   Partly Cloudy
1:30 AM 73.4 °F - 60.8 °F 65% 30.03 in 10.0 mi NNE 9.2 mph - N/A   Clear
1:50 AM 71.6 °F - 62.6 °F 73% 30.03 in 10.0 mi NNE 9.2 mph - N/A   Clear
2:10 AM 71.6 °F - 60.8 °F 69% 30.03 in 10.0 mi NNE 9.2 mph - N/A   Clear
2:30 AM 71.6 °F - 60.8 °F 69% 30.03 in 10.0 mi NNE 9.2 mph - N/A   Clear
2:50 AM 69.8 °F - 59.0 °F 68% 30.03 in 10.0 mi NNE 8.1 mph - N/A   Clear
3:10 AM 68.0 °F - 59.0 °F 73% 30.03 in 10.0 mi NE 6.9 mph - N/A   Clear
3:30 AM 66.2 °F - 59.0 °F 78% 30.03 in 10.0 mi NE 6.9 mph - N/A   Clear
3:50 AM 66.2 °F - 59.0 °F 78% 30.03 in 10.0 mi NE 6.9 mph - N/A   Clear
4:10 AM 66.2 °F - 59.0 °F 78% 30.04 in 10.0 mi NNE 5.8 mph - N/A   Clear
4:30 AM 66.2 °F - 59.0 °F 78% 30.04 in 10.0 mi NNE 5.8 mph - N/A   Clear
4:50 AM 64.4 °F - 59.0 °F 83% 30.04 in 10.0 mi NNE 6.9 mph - N/A   Clear
5:10 AM 64.4 °F - 59.0 °F 83% 30.04 in 10.0 mi NNE 4.6 mph - N/A   Clear
5:30 AM 62.6 °F - 59.0 °F 88% 30.05 in 10.0 mi North 3.5 mph - N/A   Clear
5:50 AM 64.4 °F - 59.0 °F 83% 30.05 in 10.0 mi NNE 3.5 mph - N/A   Clear
6:10 AM 64.4 °F - 59.0 °F 83% 30.05 in 10.0 mi North 4.6 mph - N/A   Clear
6:30 AM 62.6 °F - 57.2 °F 82% 30.06 in 10.0 mi NNW 5.8 mph - N/A   Clear
6:50 AM 62.6 °F - 57.2 °F 82% 30.06 in 10.0 mi NNW 5.8 mph - N/A   Clear
7:10 AM 62.6 °F - 57.2 °F 82% 30.07 in 10.0 mi NNW 6.9 mph - N/A   Clear
7:30 AM 62.6 °F - 59.0 °F 88% 30.08 in 10.0 mi North 5.8 mph - N/A   Clear
7:50 AM 64.4 °F - 59.0 °F 83% 30.09 in 10.0 mi NW 9.2 mph - N/A   Clear
8:10 AM 66.2 °F - 60.8 °F 83% 30.09 in 10.0 mi North 4.6 mph - N/A   Clear
8:30 AM 68.0 °F - 60.8 °F 78% 30.10 in 10.0 mi Calm Calm - N/A   Clear
8:50 AM 71.6 °F - 62.6 °F 73% 30.10 in 10.0 mi NNE 3.5 mph - N/A   Clear
9:10 AM 73.4 °F - 60.8 °F 65% 30.10 in 10.0 mi NNE 5.8 mph - N/A   Clear
9:30 AM 75.2 °F - 60.8 °F 61% 30.10 in 10.0 mi NE 6.9 mph - N/A   Clear
9:50 AM 75.2 °F - 62.6 °F 65% 30.11 in 10.0 mi NE 6.9 mph - N/A   Clear
10:10 AM 75.2 °F - 62.6 °F 65% 30.11 in 10.0 mi NE 6.9 mph - N/A   Clear
10:30 AM 77.0 °F - 60.8 °F 57% 30.11 in 10.0 mi NE 9.2 mph - N/A   Clear
10:50 AM 77.0 °F - 59.0 °F 54% 30.11 in 10.0 mi NE 8.1 mph - N/A   Clear
11:10 AM 78.8 °F - 59.0 °F 51% 30.11 in 10.0 mi NE 6.9 mph - N/A   Clear
11:30 AM 82.4 °F 82.5 °F 59.0 °F 45% 30.11 in 10.0 mi East 5.8 mph - N/A   Clear
11:50 AM 80.6 °F 81.1 °F 59.0 °F 48% 30.11 in 10.0 mi NE 5.8 mph - N/A   Clear
12:10 PM 82.4 °F 82.0 °F 57.2 °F 42% 30.11 in 10.0 mi ENE 6.9 mph - N/A   Clear
12:30 PM 82.4 °F 82.0 °F 57.2 °F 42% 30.10 in 10.0 mi East 4.6 mph - N/A   Clear
12:50 PM 82.4 °F 82.0 °F 57.2 °F 42% 30.10 in 10.0 mi NNE 4.6 mph - N/A   Clear
1:10 PM 84.2 °F 83.5 °F 57.2 °F 40% 30.09 in 10.0 mi East 4.6 mph - N/A   Clear
1:30 PM 84.2 °F 83.0 °F 55.4 °F 37% 30.09 in 10.0 mi East 5.8 mph - N/A   Clear
1:50 PM 84.2 °F 83.0 °F 55.4 °F 37% 30.08 in 10.0 mi NNE 10.4 mph - N/A   Clear
2:10 PM 86.0 °F 84.5 °F 55.4 °F 35% 30.08 in 10.0 mi ENE 8.1 mph - N/A   Clear
2:30 PM 86.0 °F 84.2 °F 53.6 °F 33% 30.07 in 10.0 mi NNW 4.6 mph - N/A   Clear
2:50 PM 86.0 °F 84.2 °F 53.6 °F 33% 30.06 in 10.0 mi NNW 5.8 mph - N/A   Clear
3:10 PM 86.0 °F 84.2 °F 53.6 °F 33% 30.05 in 10.0 mi North 4.6 mph - N/A Rain Light Rain
3:30 PM 87.8 °F 85.7 °F 53.6 °F 31% 30.04 in 10.0 mi North 3.5 mph - N/A   Clear
3:50 PM 86.0 °F 84.2 °F 53.6 °F 33% 30.03 in 10.0 mi ENE 11.5 mph - N/A   Clear
4:10 PM 87.8 °F 85.7 °F 53.6 °F 31% 30.03 in 10.0 mi East 8.1 mph - N/A   Clear
4:30 PM 87.8 °F 85.7 °F 53.6 °F 31% 30.02 in 10.0 mi ENE 8.1 mph - N/A Rain Light Rain
4:50 PM 87.8 °F 85.7 °F 53.6 °F 31% 30.01 in 10.0 mi ENE 10.4 mph - N/A Rain Light Rain
5:10 PM 87.8 °F 85.7 °F 53.6 °F 31% 30.01 in 10.0 mi East 8.1 mph - N/A Rain Light Rain
5:30 PM 89.6 °F - 50.0 °F 26% 30.00 in 10.0 mi NE 9.2 mph - N/A Rain Light Rain
5:50 PM 89.6 °F - 51.8 °F 27% 30.00 in 10.0 mi NNE 10.4 mph - N/A   Clear
6:10 PM 87.8 °F - 51.8 °F 29% 30.00 in 10.0 mi NNE 6.9 mph - N/A Rain Light Rain
6:30 PM 87.8 °F - 51.8 °F 29% 30.00 in 10.0 mi NE 9.2 mph - N/A   Clear
6:50 PM 86.0 °F 84.2 °F 53.6 °F 33% 29.99 in 10.0 mi ENE 6.9 mph - N/A Rain Light Rain
7:10 PM 86.0 °F 84.2 °F 53.6 °F 33% 29.99 in 10.0 mi ENE 5.8 mph - N/A   Clear
7:30 PM 84.2 °F 82.8 °F 53.6 °F 35% 29.99 in 10.0 mi NE 5.8 mph - N/A   Clear
7:50 PM 82.4 °F 81.7 °F 55.4 °F 39% 30.00 in 10.0 mi ENE 5.8 mph - N/A Rain Light Rain
8:10 PM 80.6 °F 80.5 °F 55.4 °F 42% 30.00 in 10.0 mi ENE 4.6 mph - N/A   Clear
8:30 PM 78.8 °F - 55.4 °F 44% 30.00 in 10.0 mi ENE 5.8 mph - N/A Rain Light Rain
8:50 PM 77.0 °F - 55.4 °F 47% 30.01 in 10.0 mi ENE 6.9 mph - N/A Rain Light Rain
9:10 PM 77.0 °F - 53.6 °F 44% 30.01 in 10.0 mi ENE 6.9 mph - N/A Rain Light Rain
9:30 PM 77.0 °F - 55.4 °F 47% 30.02 in 10.0 mi NE 6.9 mph - N/A Rain Light Rain
9:50 PM 75.2 °F - 53.6 °F 47% 30.03 in 10.0 mi ENE 8.1 mph - N/A Rain Light Rain
10:10 PM 75.2 °F - 53.6 °F 47% 30.04 in 10.0 mi ENE 8.1 mph - N/A Rain Light Rain
10:30 PM 73.4 °F - 55.4 °F 53% 30.05 in 10.0 mi ENE 8.1 mph - N/A   Clear
10:50 PM 73.4 °F - 55.4 °F 53% 30.05 in 10.0 mi ENE 5.8 mph - N/A   Clear
11:10 PM 71.6 °F - 55.4 °F 57% 30.05 in 10.0 mi ENE 6.9 mph - N/A Rain Light Rain
11:30 PM 71.6 °F - 55.4 °F 57% 30.06 in 10.0 mi ENE 6.9 mph - N/A   Clear
11:50 PM 71.6 °F - 55.4 °F 57% 30.06 in 10.0 mi ENE 5.8 mph - N/A   Clear